Starlink 3344

operational
NORAD ID: 51110 Int'l Des: 2022-005 Owner: SPXS Country: US Constellation: starlink
LEOCIRCULAR

关于 Starlink 3344

正在加载描述...

实时位置

正在加载3D地球...

即将过境

高度历史

Altitude vs Time

uPlot chart will show altitude changes over time

两行轨道根数

1 51110U 22005G 25302.87490575 .00005108 00000-0 33858-3 0 9998
2 51110 53.2153 156.3527 0001084 95.6966 264.4150 15.08862499209131
Epoch: Oct 29, 2025 • Age: 46 hours

当前状态

高度 557.0 km
速度 7.58 km/s
星下点 -48.68°S, 66.11°E
发射日期 Jan 19, 2022
运行时间 3.7 years
类型 internet

技术详情

分类 Payload
质量 297.00 kg
干质量 275.00 kg
总质量 297.00 kg
长度 0.20 m
直径 2.80 m
跨度 9.00 m
形状 Box + pan
制造商 SPXS
平台类型 Starlink
阶段状态 In Orbit
所有者/国家 SPXS/US

大型星座

Loading constellations...